Wind_Speed
2 4 7 6 6 5 4 4 6 4 6 6 5 7 17 8 15 10 12 12 12 14 19 21 20 22 26 23 21 19 18 19 17 15 15 14 12 12 10 9 9 8 6 4
5 6 6 7 7 7 1 7 5 9 7 3 7 4 13 7 13 17 7 13 15 13 11 17 23 24 28 27 26 22 23 21 17 14 16 16 13 12 8 8 8 5 5 5
6 3 7 5 5 7 3 4 5 6 8 3 1 4 10 6 9 17 6 6 13 15 15 11 19 24 28 30 31 28 27 24 19 17 14 13 12 8 9 10 8 6 5 4
3 2 7 3 4 6 5 10 9 17 7 4 7 4 8 14 7 6 14 10 11 16 16 18 22 24 31 34 33 29 28 26 22 21 18 17 14 10 10 8 9 6 5 4
5 5 5 3 4 6 4 6 9 10 3 4 3 2 2 11 13 14 22 11 13 15 17 16 23 29 32 34 35 31 28 27 24 21 19 16 14 11 8 8 8 9 7 6
4 1 5 7 4 8 7 9 10 4 3 1 7 4 4 9 20 15 17 19 12 15 15 22 30 25 23 27 30 32 29 29 25 22 19 16 14 12 11 10 10 9 8 8
4 3 3 4 4 1 2 5 3 3 0 5 2 4 5 3 6 19 20 21 15 16 15 13 15 19 20 25 31 33 33 31 27 24 21 17 13 12 12 13 11 12 10 11
5 3 7 4 8 7 8 8 6 5 5 2 3 4 4 3 7 9 13 13 12 14 13 15 17 20 22 23 27 32 34 34 30 24 22 18 14 11 8 9 14 12 12 11
3 5 4 5 4 9 5 3 6 7 3 4 2 3 4 5 5 9 9 11 8 13 13 10 17 21 19 18 20 26 29 29 31 26 21 18 14 12 10 9 8 13 11 10
4 2 3 4 3 2 6 6 3 3 5 3 2 3 3 2 7 8 9 9 6 6 5 6 10 16 24 21 17 19 21 26 27 26 22 19 16 14 12 8 8 8 11 10
3 3 6 1 2 7 2 1 5 5 4 6 4 5 3 6 10 8 8 7 6 5 6 5 7 14 20 17 14 24 26 27 22 26 23 20 20 17 14 12 9 9 8 9
1 4 3 7 2 2 2 5 6 5 4 1 3 4 1 8 10 11 6 6 5 5 5 4 9 18 19 12 10 19 23 27 27 19 19 17 17 17 16 14 12 11 10 11
4 2 2 7 6 5 4 2 4 5 4 5 6 4 6 8 10 8 10 8 6 7 6 4 6 12 16 17 15 12 12 12 15 12 14 10 9 11 14 12 12 12 13 12
5 3 4 5 5 3 4 5 2 4 4 6 4 9 11 13 13 11 10 9 6 4 6 6 5 8 18 20 10 3 12 12 10 16 17 15 12 7 4 2 2 5 9 12
3 4 2 2 4 3 3 5 5 3 5 6 8 10 17 17 13 11 11 10 9 7 6 5 6 9 12 15 19 17 16 17 14 13 13 11 9 11 11 9 8 8 5 4
4 1 1 2 3 7 3 14 10 3 2 4 8 2 8 11 9 12 13 12 12 11 8 8 10 13 14 14 18 17 12 8 9 8 8 10 8 6 3 5 4 4 6 8
4 2 3 2 6 5 6 9 5 5 1 4 6 7 12 15 14 14 13 12 12 12 12 9 11 16 16 16 20 22 21 19 19 17 14 13 12 10 8 7 5 6 6 4
3 3 2 1 4 2 5 2 4 3 5 4 3 11 14 14 8 9 10 11 11 11 12 12 16 20 21 22 25 28 29 28 26 23 18 17 14 12 9 12 10 7 7 8
5 4 3 2 2 4 2 2 4 4 4 2 8 13 13 15 16 9 11 10 10 10 16 16 19 22 25 27 27 28 28 26 25 24 21 18 16 14 12 15 12 11 8 5
4 6 3 3 4 5 4 1 3 1 5 4 5 14 18 15 7 5 11 12 13 15 21 21 25 28 27 24 25 27 25 25 22 19 18 16 16 15 13 11 9 9 13 12
4 4 3 1 2 5 5 10 4 3 5 5 11 9 11 5 3 7 12 13 14 16 26 22 18 24 25 21 20 23 21 20 16 16 16 16 16 18 16 16 15 13 14 16
2 2 1 2 2 2 7 6 3 3 5 2 5 7 9 11 13 13 13 12 16 18 19 23 25 21 18 16 16 19 18 13 12 12 14 15 15 16 14 15 16 15 15 17
1 4 3 6 5 4 4 4 4 3 3 1 5 6 10 15 14 14 12 11 13 19 20 19 21 18 15 13 11 17 14 11 12 13 15 14 14 14 13 14 15 16 15 15
3 2 2 2 3 4 4 4 4 1 3 7 9 10 12 14 14 12 12 9 12 16 21 23 22 20 17 14 13 14 12 10 13 17 17 15 15 15 14 13 13 14 15 15
4 2 3 3 5 4 4 5 4 2 9 12 8 10 12 15 12 11 10 14 13 16 19 18 19 18 16 14 14 13 13 10 14 16 16 16 17 17 17 17 16 15 14 14
3 4 4 5 3 2 4 5 4 4 5 11 15 9 11 17 14 19 13 16 17 19 18 16 15 15 14 12 12 12 11 10 13 15 15 15 15 16 16 16 14 15 14 11
Wind_Direction
207 104 192 184 174 155 138 104 94 63 61 52 332 160 173 163 170 169 180 172 158 179 185 180 178 190 195 195 191 189 183 177 183 187 188 182 176 178 181 172 174 170 181 162
61 218 205 176 151 130 177 113 86 76 115 68 339 212 167 166 169 178 185 183 172 179 168 172 178 181 194 194 192 188 182 181 189 193 187 195 194 191 189 180 175 181 191 201
147 211 154 153 149 133 179 138 179 135 127 61 82 132 177 239 160 191 209 222 179 172 173 164 171 180 190 196 194 196 192 190 188 187 175 176 189 194 204 195 189 189 183 192
168 209 138 161 156 149 168 193 152 136 138 183 199 172 214 198 192 201 189 210 192 175 175 168 179 181 191 199 195 198 198 194 191 190 191 189 191 196 210 218 215 204 187 180
231 154 159 154 193 171 201 144 140 149 112 110 202 163 192 161 203 198 213 224 184 183 176 178 184 192 192 198 199 202 201 197 195 192 194 196 203 218 213 208 201 206 222 211
213 221 145 197 179 179 165 90 57 61 68 315 207 167 214 190 208 200 203 215 193 183 183 184 190 190 190 198 200 202 200 200 200 199 199 205 214 217 224 218 209 207 216 218
317 243 223 150 141 170 184 116 76 67 64 225 227 135 242 256 212 197 192 198 182 183 180 180 173 184 189 197 201 204 203 206 205 203 202 203 213 225 237 221 216 214 214 219
161 285 173 185 171 186 193 170 151 154 182 227 123 222 261 253 246 191 183 179 156 167 175 174 179 184 192 200 201 203 207 209 207 208 207 206 211 220 209 231 224 225 232 233
136 278 297 205 163 141 201 183 176 105 48 92 239 292 302 356 77 122 127 133 168 176 174 179 169 184 183 199 204 209 207 211 209 208 208 207 208 215 227 230 244 236 224 230
202 286 253 292 130 75 161 163 89 2 128 163 278 277 220 188 115 116 118 119 107 122 129 133 177 181 183 190 203 211 211 210 218 213 213 218 221 227 230 248 259 231 215 233
133 115 290 314 174 181 132 140 47 110 109 149 157 257 205 182 138 128 118 115 112 92 138 134 156 185 187 210 218 212 213 204 228 231 219 225 230 231 238 245 251 241 246 263
222 140 233 242 260 238 246 185 150 128 215 84 138 240 67 129 129 124 119 131 133 111 108 130 162 172 181 200 186 190 193 196 204 217 228 224 235 238 241 247 253 262 270 269
194 46 10 348 354 11 53 340 118 112 98 184 139 224 149 148 152 150 149 143 131 125 134 107 116 154 163 156 131 124 134 163 194 192 193 191 208 225 231 241 256 269 270 264
98 103 174 184 212 205 329 341 141 109 119 162 201 154 175 178 166 148 138 124 110 118 132 117 99 101 150 150 160 191 159 153 137 126 121 88 90 102 115 124 249 272 271 262
87 127 191 238 286 138 49 7 316 204 174 149 187 184 189 178 162 143 132 131 128 118 96 109 104 89 96 137 147 175 189 181 180 160 136 135 99 82 72 68 62 47 6 291
17 150 100 293 241 75 44 14 5 53 91 63 132 72 131 132 135 139 140 136 130 123 115 110 96 93 89 95 108 120 126 139 172 182 185 182 238 243 13 40 29 28 38 32
65 76 47 240 327 54 23 352 323 289 159 143 157 196 146 144 155 154 138 130 129 126 118 107 97 94 89 90 100 96 96 108 106 109 123 138 146 127 99 83 67 65 59 35
76 74 51 156 15 115 217 39 283 80 9 356 54 139 141 136 117 128 127 124 124 120 114 109 97 93 90 90 90 93 94 93 93 91 90 96 105 104 98 72 67 64 62 47
1 114 73 122 39 307 54 46 355 359 317 342 138 128 127 121 103 94 119 119 120 116 106 105 107 103 100 99 100 97 91 90 86 83 86 88 90 94 88 73 59 52 44 55
68 65 116 137 128 201 208 122 343 202 316 179 141 147 144 143 143 146 126 120 112 114 119 121 118 115 106 102 103 96 87 87 81 79 84 83 80 78 81 81 78 66 71 70
360 7 92 57 167 292 303 319 293 122 246 166 154 144 159 148 133 126 123 113 115 126 123 127 114 111 114 113 106 97 93 86 89 89 87 85 83 83 85 84 87 91 93 91
145 119 138 68 79 268 341 343 16 260 323 179 133 147 120 121 117 117 117 119 125 115 113 123 117 112 108 106 106 101 90 93 97 96 90 86 84 85 85 89 84 82 81 77
350 176 189 173 219 246 280 245 281 232 248 314 121 121 129 133 126 135 134 131 130 119 122 126 118 105 92 90 91 96 95 103 108 103 93 90 89 84 81 80 76 72 66 62
340 123 108 60 288 320 334 334 341 359 117 95 107 125 141 126 130 130 120 120 119 129 132 136 127 119 111 107 104 101 103 104 102 97 92 88 86 81 78 75 66 61 54 54
200 83 140 300 296 326 349 17 354 48 104 97 96 126 135 132 139 140 132 128 133 139 141 144 133 126 120 117 109 105 103 112 100 94 87 83 83 80 78 73 69 71 63 52
181 176 154 212 226 173 259 334 18 307 139 136 130 131 145 150 141 137 135 150 154 153 150 142 134 131 129 123 115 115 122 120 112 100 92 85 81 78 76 78 79 71 76 72
Height
776 792 799 791 787 787 786 791 800 804 800 804 810 807 808 806 806 813 815 819 824 824 825 830 836 840 842 845 847 850 851 854 857 859 861 864 867 869 871 874 875 875 877 878
788 797 783 778 781 786 793 797 809 808 805 806 810 812 808 809 811 811 815 817 820 821 825 829 833 838 841 843 846 849 851 853 856 858 860 863 866 869 871 873 875 876 877 878
790 780 775 778 786 790 796 797 807 805 808 810 815 822 817 812 810 813 813 814 814 819 823 828 832 835 839 841 842 846 849 852 855 858 860 863 865 868 870 873 874 875 877 878
779 771 777 781 787 788 803 786 787 805 814 831 814 838 823 814 818 814 812 813 817 815 818 822 828 831 834 837 842 845 849 852 855 857 859 862 864 867 869 871 873 875 876 878
783 778 780 785 783 782 786 775 788 800 816 819 823 830 821 815 821 818 810 810 811 812 814 820 823 824 829 835 839 844 848 851 854 856 858 861 863 866 868 871 872 874 875 877
772 762 768 774 771 773 773 786 804 813 822 835 818 820 825 820 802 807 806 808 807 809 812 814 816 823 829 834 838 842 846 849 852 854 857 860 863 865 867 870 871 873 875 876
777 773 763 762 777 774 777 799 842 844 847 839 818 822 813 805 795 793 796 797 800 804 809 813 819 824 828 831 834 838 843 846 850 852 855 858 861 864 864 868 870 871 873 875
800 798 772 761 772 784 791 794 822 838 847 832 816 823 805 796 791 785 786 794 797 801 804 807 813 819 823 828 831 835 839 843 847 851 853 856 859 862 864 866 867 869 871 873
801 791 760 758 757 762 781 796 779 812 817 827 826 812 799 789 789 788 793 795 799 799 802 805 809 815 821 827 831 835 838 842 846 850 854 856 858 860 863 866 866 868 869 871
782 796 767 756 751 757 768 769 798 812 830 830 830 825 814 801 799 798 800 802 803 802 804 807 810 813 819 825 830 836 839 842 846 850 853 855 858 860 862 863 864 865 868 870
778 789 780 763 767 773 774 781 793 800 810 830 840 824 797 798 795 800 802 802 804 804 805 808 810 814 818 822 827 832 836 839 844 849 850 852 855 858 860 862 863 864 866 868
777 795 796 776 759 761 760 768 779 803 812 820 818 821 791 792 793 799 805 806 806 806 808 808 811 813 818 824 828 830 832 836 840 843 848 850 853 856 857 860 861 864 865 866
774 798 804 787 778 767 773 767 775 788 798 812 813 818 794 797 799 801 804 805 807 807 811 811 811 814 818 824 829 833 833 835 837 840 843 848 852 853 854 857 858 861 862 864
770 797 795 805 794 789 782 776 769 781 798 811 808 802 797 798 800 801 804 806 809 812 812 812 814 815 819 823 827 825 834 836 835 840 841 849 853 853 853 854 856 857 859 861
778 791 786 782 782 779 781 785 776 773 779 783 792 794 787 789 795 798 802 808 811 814 814 815 816 816 820 823 824 830 835 838 840 841 842 848 853 853 852 854 855 856 858 858
785 794 787 785 778 777 784 781 781 775 780 781 786 791 783 788 793 798 800 805 809 813 818 818 819 819 821 824 824 828 834 834 836 839 841 842 846 851 852 853 856 856 856 858
791 800 804 796 792 779 802 793 792 787 776 782 788 779 779 792 797 798 801 806 811 814 816 822 822 822 826 828 829 830 832 835 836 839 842 845 847 849 851 852 856 857 856 857
784 803 813 809 800 813 789 780 784 786 783 780 781 777 779 788 796 799 802 810 815 820 821 823 825 827 830 833 833 834 836 838 840 842 845 845 847 848 850 851 856 858 858 859
792 801 814 812 820 803 786 787 792 791 790 781 782 782 788 790 797 807 807 813 818 822 825 829 831 831 834 836 839 839 842 844 846 846 849 851 852 853 853 851 854 855 858 858
795 800 800 819 814 820 793 786 782 782 800 778 781 784 787 788 804 811 812 815 821 826 827 831 834 835 836 840 842 843 847 849 851 852 853 854 854 855 855 856 857 859 858 857
813 816 818 818 814 808 789 787 780 797 806 780 780 786 792 797 802 811 814 821 826 828 827 834 838 837 837 842 844 846 850 853 856 857 858 857 857 857 859 858 859 860 859 861
814 819 822 827 820 809 793 782 785 792 783 781 784 785 793 803 806 812 818 824 828 830 834 838 839 842 843 845 845 848 851 855 857 858 858 859 860 861 863 861 862 862 862 860
814 814 817 817 819 805 799 797 791 792 791 788 788 794 797 801 808 816 823 828 832 832 836 840 840 843 844 845 848 849 855 858 859 859 859 860 861 861 862 863 863 862 864 863
807 810 813 811 802 799 796 794 792 789 789 789 793 797 802 806 814 821 823 831 835 838 840 844 846 849 851 853 854 853 855 859 859 858 860 861 861 861 863 864 863 862 865 866
813 811 814 814 804 799 796 797 798 795 792 794 799 801 806 810 818 822 826 832 836 840 842 845 846 847 850 853 854 855 854 859 859 859 861 862 862 863 864 865 865 867 868 866
810 809 816 816 807 807 804 802 799 799 796 796 799 807 812 812 816 822 828 832 836 840 842 845 846 848 852 854 855 856 860 861 861 862 863 863 863 865 865 866 868 869 868 869